Flag for Germany Weather for the Past 2 Weeks in Königs Wusterhausen, Brandenburg, Germany

Now
43 °F

Clear.


Feels Like: 36 °F
Forecast: 43 / 48 °F
Wind: 12 mph from South

Location: Berlin-Schoenefeld

Current Time: Feb 8, 2016 at 3:43:15 AM

Latest Report: Feb 8, 2016 at 2:50 AM


Visibility: 10 mi

Pressure: 29.65 "Hg

Humidity: 76%

Dew point: 36 °F

Location of Königs WusterhausenLocation

Historic Weather in Königs Wusterhausen — Graph

°F

Königs Wusterhausen Temperature Yesterday

Maximum temperature yesterday: 50 °F (at 12:20 PM)
Minimum temperature yesterday: 39 °F (at 12:20 AM)
Average temperature yesterday: 44 °F

High & Low Weather Summary for the Past Weeks

 TemperatureHumidityPressure
High54 °F (Jan 27, 11:50 AM)100% (Jan 24, 2:20 AM)30.48 "Hg (Jan 24, 2:20 AM)
Low30 °F (Feb 5, 2:50 AM)47% (Feb 2, 1:20 PM)29.59 "Hg (Jan 30, 5:50 PM)
Average43 °F82%29.98 "Hg
* Reported Jan 24 2:20 AM — Feb 8 2:20 AM, Königs Wusterhausen, Weather by CustomWeather, © 2016

Note: Actual official high and low records may vary slightly from our data, if they occured in-between our weather recording intervals... More about our weather records

Advertising

Königs Wusterhausen Weather History for the Previous 24 Hours

 ConditionsComfort  
Time TempWeatherWind HumidityBarometerVisibility
2:20 AM
Mon, Feb 8
45 °FClear.14 mph71%29.65 "Hg10 mi
1:50 AM45 °FClear.14 mph76%29.65 "Hg10 mi
1:20 AM45 °FClear.14 mph76%29.68 "Hg10 mi
12:50 AM45 °FClear.13 mph81%29.68 "Hg10 mi
12:20 AM45 °FClear.9 mph81%29.68 "Hg10 mi
11:50 PM
Sun, Feb 7
43 °FPartly cloudy.7 mph87%29.68 "HgN/A
11:20 PM43 °FClear.7 mph87%29.68 "Hg10 mi
10:50 PM43 °FMostly cloudy.6 mph81%29.68 "HgN/A
10:20 PM45 °FPassing clouds.6 mph81%29.68 "HgN/A
9:50 PM43 °FLight rain. Partly cloudy.12 mph87%29.68 "HgN/A
9:20 PM43 °FLight rain. Passing clouds.8 mph81%29.65 "HgN/A
8:50 PM45 °FClear.10 mph71%29.65 "Hg10 mi
8:20 PM45 °FClear.10 mph71%29.62 "Hg10 mi
7:50 PM45 °FClear.13 mph71%29.62 "Hg10 mi
7:20 PM45 °FClear.9 mph76%29.62 "Hg10 mi
6:50 PM45 °FClear.8 mph76%29.62 "Hg10 mi
6:20 PM45 °FClear.7 mph76%29.62 "Hg10 mi
5:50 PM45 °FClear.8 mph76%29.62 "Hg10 mi
5:20 PM46 °FClear.7 mph71%29.59 "Hg10 mi
4:20 PM46 °FSunny.7 mph71%29.59 "Hg10 mi
3:50 PM48 °FSunny.8 mph66%29.59 "Hg10 mi
3:20 PM48 °FSunny.7 mph66%29.62 "Hg10 mi
2:50 PM48 °FSunny.7 mph66%29.59 "Hg10 mi
2:20 PM50 °FSunny.8 mph62%29.59 "Hg10 mi
1:50 PM50 °FSunny.9 mph62%29.59 "Hg10 mi
1:20 PM50 °FSunny.9 mph62%29.62 "Hg10 mi
12:50 PM50 °FSunny.8 mph62%29.62 "Hg10 mi
12:20 PM50 °FSunny.13 mph62%29.62 "Hg10 mi
11:50 AM48 °FSunny.13 mph66%29.62 "Hg10 mi
11:20 AM46 °FSunny.12 mph66%29.65 "Hg10 mi
10:50 AM46 °FSunny.10 mph71%29.65 "Hg10 mi
10:20 AM45 °FPassing clouds.12 mph71%29.65 "HgN/A
9:50 AM43 °FSunny.12 mph76%29.65 "Hg10 mi
9:20 AM41 °FSunny.12 mph81%29.65 "Hg10 mi
8:50 AM39 °FSunny.13 mph81%29.65 "Hg10 mi
8:20 AM39 °FSunny.12 mph81%29.68 "Hg10 mi
7:50 AM39 °FSunny.9 mph81%29.68 "Hg10 mi
7:20 AM39 °FClear.12 mph81%29.68 "Hg10 mi
6:50 AM39 °FClear.9 mph81%29.68 "Hg10 mi
6:20 AM41 °FClear.10 mph81%29.68 "Hg10 mi
5:50 AM41 °FClear.12 mph81%29.68 "Hg10 mi
5:20 AM39 °FClear.12 mph87%29.71 "Hg10 mi
4:20 AM39 °FClear.7 mph87%29.71 "Hg10 mi
3:50 AM39 °FClear.7 mph87%29.71 "Hg10 mi
3:20 AM41 °FClear.8 mph81%29.71 "Hg10 mi
Weather by CustomWeather, © 2016

See weather overviewHow to use our weather pages